Location: Rometta
(44.2000°N, 10.0500°E)
Time: 22:56:20
(UTC+00:00)

CZ-2C R/B - Pass Details

Date: 20 January 2021
Orbit: 785 x 870 km, 98.2° (Epoch: 04 March)

Event Time Altitude Azimuth Distance (km) Brightness Sun altitude
Exits shadow 17:45:54 26° 75° (ENE) 1,648 3.6 -16.4°
Maximum altitude 17:46:58 27° 94° (E) 1,587 3.6 -16.6°
Drops below altitude 10° 17:51:40 10° 151° (SSE) 2,505 5.0 -17.4°
Sets 17:54:24 0° 163° (SSE) 3,442 5.8 -17.9°
